Weather in Yalong Bay

China     18°13′31″N   109°33′03″E
temp.,
°C
wind,
m/s
gust,
m/s
humid.,
%
clouds,
%
prec.,
mm/h
press.,
hPa
HPBL,
m
8 august, mon
mon823:00+26ne2287100 0.3 100574
02:00+26nne1288100 0.3 100358
05:00+25nne2290100 1.1 100358
08:00+26ne2488100 1.2 1004192
11:00+30e4670100 0.0 10031022
14:00+31e5667100 0.2 10021164
17:00+30e5773100 0.3 1001805
20:00+26ene3488100 1.2 1002222
9 august, tue
tue923:00+26nne2287100 0.0 1004103
02:00+26n2287100 0.0 100267
05:00+25n2285100 0.0 100163
08:00+27nw2380100 0.0 1002148
11:00+30w347411 1.8 1002688
14:00+30w457961 6.7 1000693
17:00+29w348194 4.8 998265
20:00+27n228669 5.8 99950
10 august, wed
wed1023:00+26nnw2286100 0.1 100168
02:00+26wnw3586100 0.1 999198
05:00+25wnw5988100 0.2 999427
08:00+27w61082100 0.3 1001795
11:00+30w6769100 0.1 10021157
14:00+27wsw5884100 1.1 1002628
17:00+27w3583100 0.1 1001433
20:00+27sw1284100 0.1 1003255
11 august, thu
thu1123:00+26ene0185100 0.1 1005235
02:00+26ese1288100 1.1 1004198
05:00+26ene1285100 0.7 1004266
08:00+26ne1186100 0.8 100570
11:00+28ene2277100 1.2 1006468
14:00+30e2165100 1.4 1005691
17:00+29e3572100 0.1 1004442
20:00+27ene4782100 0.1 1005400
12 august, fri
fri1223:00+26ene488699 0.0 1007516
02:00+25ne3591100 0.0 1006251
05:00+24ne3593100 1.7 1005201
08:00+26ene359096 2.9 1007374
11:00+28ese458191 1.3 1007647
14:00+26s3591100 6.7 1007334
17:00+24ene2295100 5.1 1006174
20:00+24ene2392100 5.5 1007167